Retour au catalogue

CZ-8 R/B

ActifPO
NORAD 63177·ROCKET BODY·🇨🇳 China

Lancé Mar 11, 2025 depuis Wenchang Space Launch Site

Loading…

Prochains Passages (prochaines 24 heures)

TLE

FraisSource: Space-Track

Époque: Sep 14, 2026, 20:56 UTC

1 63177U 25046U   26257.87269617  .00000240  00000-0  12627-3 0  9996
2 63177  88.9627 285.6538 0063108 157.6672 202.7282 14.09670286 87725

Suivez CZ-8 R/B en temps réel avec AllMySat

Download on the App Store